Regional Weather Roundup
Issued by NWS

Home | Current Version | Previous Version | Graphics & Text | Print | Product List | Glossary On
Versions: 1 2 3 4 5 6 7 8 9 10 11 12 13 14 15 16 17 18 19 20 21 22 23 24 25 26 27 28 29 30 31 32 33 34 35 36 37 38 39 40 41 42 43 44 45 46 47 48 49 50
000
ASUS43 KDTX 220210
RWRMI
MICHIGAN HOURLY REGIONAL WEATHER ROUNDUP
NATIONAL WEATHER SERVICE DETROIT/PONTIAC MI
1000 PM EDT THU SEP 21 2017

NOTE: "FAIR" INDICATES FEW OR NO CLOUDS BELOW 12,000 FEET WITH NO
SIGNIFICANT WEATHER AND/OR OBSTRUCTION TO VISIBILITY.

MIZ047>049-052>055-059>063-066>070-074>076-081>083-220300-
SOUTHEAST LOWER MICHIGAN

CITY           SKY/WX    TMP DP  RH WIND       PRES   REMARKS
ADRIAN         PTCLDY    77  65  66 E6        30.10R
ALMA           PTCLDY    65  61  85 CALM      30.06R
ANN ARBOR      MOCLDY    73  65  75 CALM      30.08F
BAD AXE        PTCLDY    73  69  85 S5        30.09R
CARO           PTCLDY    69  63  81 E3        30.06F
DETROIT CITY   MOCLDY    76  66  71 SE7       30.09S
DETROIT        MOCLDY    76  69  79 SE6       30.09F
FLINT          CLOUDY    72  63  73 NE8       30.05S
GROSSE ILE     MOCLDY    73  67  83 CALM      30.08S
HILLSDALE      PTCLDY    72  63  73 E6        30.10S
HOWELL         CLOUDY    69  65  87 CALM      30.06S

CITY           SKY/WX    TMP DP  RH WIND       PRES   REMARKS
JACKSON        CLOUDY    71  64  78 SW5       30.09S
LAMBERTVILLE   PTCLDY    76  70  81 NE5       30.08S
LANSING        CLOUDY    70  65  84 SE5       30.06S
LAPEER         FAIR      73  68  83 E6        30.07F
MASON          CLOUDY    69  66  89 E6        30.07F
MONROE         PTCLDY    74  69  83 NE3       30.09S
MT. CLEMENS    CLOUDY    72  70  94 S5        30.09S
PONTIAC        CLOUDY    75  62  64 SE5       30.07F
PORT HOPE        N/A     77  69  76 S5        30.05R
PORT HURON     CLOUDY    70  66  88 CALM      30.10R
TRI CITIES     CLOUDY    72  63  73 CALM      30.04F
MIDLAND        FAIR      69  63  80 CALM      30.04S
TROY           PTCLDY    78  68  71 E5        30.10S
SAGINAW HB     PTCLDY    70  61  73 E6        30.04F
$$
MIZ043>046-050>051-056>058-064>065-071>073-077>080-220300-
SOUTHWEST LOWER MICHIGAN

CITY           SKY/WX    TMP DP  RH WIND       PRES   REMARKS
BATTLE CREEK   PTCLDY    73  66  78 E5        30.08S
BENTON HARBOR  CLEAR     76  72  87 E5        30.02S FOG
BIG RAPIDS     CLEAR     68  64  88 CALM      30.06S
COLDWATER      CLEAR     76  65  70 E6        30.08S
FREMONT        FAIR      69  69 100 CALM      30.03F
HOLLAND        CLEAR     78  65  63 SE7       30.05R
GRAND RAPIDS   MOCLDY    73  64  73 S6        30.05S
IONIA          FAIR      70  64  80 SW5       30.05R
KALAMAZOO      CLEAR     74  65  73 E3        30.07S
LUDINGTON      CLEAR     66  65  97 CALM      30.02F FOG
MARSHALL       PTCLDY    70  67  90 SE5       30.07F
MOUNT PLEASANT CLEAR     72  64  77 CALM      30.05S
MUSKEGON       MOCLDY    77  69  76 SE5       30.03S
SOUTH HAVEN    CLEAR     79  71  75 E7        30.04R
$$
MIZ016>042-220300-
NORTHERN LOWER MICHIGAN

CITY           SKY/WX    TMP DP  RH WIND       PRES   REMARKS
ALPENA         CLEAR     68  67  96 CALM      30.05R
BEAVER ISLAND  CLEAR     70  66  89 SE5       30.05R
BELLAIRE       CLEAR     67  65  94 CALM      30.05R FOG
CADILLAC       CLOUDY    70  65  85 CALM      30.07S
CHARLEVOIX     CLEAR     68  68 100 CALM      30.07S
FRANKFORT      CLOUDY    66  66 100 CALM      30.03S FOG
GAYLORD        CLEAR     71  67  87 E3        30.08R
GRAYLING       CLEAR     69  67  93 CALM      30.08S
HARBOR SPRINGS CLEAR     70  68  95 NE3       30.04S
HOUGHTON LAKE  PTCLDY    71  68  90 S3        30.07S
MANISTEE       CLOUDY    66  66 100 E5        30.02F FOG
OSCODA         CLEAR     69  69  98 SW6       30.05R
PELLSTON       CLEAR     67  67 100 CALM      30.05S FOG
ROGERS CITY    PTCLDY    66  64  94 CALM      30.06S FOG
TRAVERSE CITY  CLOUDY    68  65  90 CALM      30.03S
$$
MIZ007>008-015-220300-
EASTERN UPPER MICHIGAN

CITY           SKY/WX    TMP DP  RH WIND       PRES   REMARKS
KINROSS        CLEAR     67  66  97 SE7       30.06F
MACKINAC ISLAN PTCLDY    67  67 100 E6        30.05S FOG
NEWBERRY       PTCLDY    68  67  97 SE6       30.04S
S. S. MARIE    PTCLDY    69  66  90 SE5       30.06R
MUNISING         N/A     60  60 100 CALM      30.01F
$$
MIZ004>006-011>014-085-220300-
CENTRAL UPPER MICHIGAN

CITY           SKY/WX    TMP DP  RH WIND       PRES   REMARKS
MANISTIQUE     PTCLDY    66  60  80 S5        30.03S HAZE
ESCANABA       CLEAR     66  66 100 N3        30.01S FOG
MENOMINEE      CLEAR     68  66  93 S6        30.02R
SAWYER-GWINN   CLEAR     64  59  82 SE7       30.04R
$$
MIZ001>003-009>011-084-220300-
WESTERN UPPER MICHIGAN

CITY           SKY/WX    TMP DP  RH WIND       PRES   REMARKS
IRON MOUNTAIN  PTCLDY    69  66  90 CALM      30.01R
HOUGHTON       CLEAR     58  54  86 E12       29.99S
COPPER HARBOR    N/A     59  56  89 S3        30.00R
IRONWOOD       CLEAR     72  66  81 SE6       29.95R
$$

ABBREVIATIONS USED IN REMARKS
   TC - TEMPERATURE IN CELSIUS
  WCI - WIND CHILL INDEX
   HX - HEAT INDEX
  VSB - VISIBILITY





USA.gov is the U.S. government's official web portal to all federal, state and local government web resources and services.